Location: Chiroubles
(46.1812°N, 4.6660°E)
Time: 03:35:59
(UTC+00:00)

Explorer 7 - Pass Details

Date: 04 December 2020
Orbit: 484 x 678 km, 50.3° (Epoch: 25 January)

Event Time Altitude Azimuth Distance (km) Brightness Sun altitude
Exits shadow 03:28:16 12° 88° (E) 1,726 10.1 -37.0°
Drops below altitude 10° 03:28:32 10° 89° (E) 1,824 10.2 -37.0°
Sets 03:30:44 0° 94° (E) 2,686 11.3 -36.6°
